SCP
0 0 0 0 0 0 0 0 0 0 0 0 0 0 0 0 0 0 0 0 0 0 0 0 0 0 0 0 0 0 0 0 0 0 0 0 0 0 0 0 0 0 0
0 0 0 0 0 0 0 0 0 0 0 0 0 0 0 0 0 0 0 0 0 0 0 0 0 0 0 0 0 0 0 0 0 0 0 0 0 0 0 0 0 0 0
0 0 0 0 0 0 0 0 0 0 0 0 0 0 0 0 0 0 0 0 0 0 0 0 0 0 0 0 0 0 0 0 0 0 0 0 0 0 0 0 0 0 0
0 0 0 0 0 0 0 0 0 0 0 0 0 0 0 0 0 0 0 0 0 0 0 0 0 0 0 0 0 0 0 0 0 0 0 0 0 0 0 0 0 0 0
0 0 0 0 0 0 0 0 0 0 0 0 0 0 0 0 0 0 0 0 0 0 0 0 0 0 0 0 0 0 0 0 0 0 0 0 0 0 0 0 0 0 0
0 0 0 0 0 0 0 0 0 0 0 0 0 0 0 0 0 0 0 0 0 0 0 0 0 0 0 0 0 0 0 0 0 0 0 0 0 0 0 0 0 0 0
0 0 0 0 0 0 0 0 0 0 0 0 0 0 0 0 0 0 0 0 0 0 0 0 0 0 0 0 0 0 0 0 0 0 0 0 0 0 0 0 0 0 0
0 0 0 0 0 0 0 0 0 0 0 0 0 0 0 0 0 0 0 0 0 0 0 0 0 0 0 0 0 0 0 0 0 0 0 0 0 0 0 0 0 0 0
0 0 0 0 0 0 0 0 0 0 0 0 0 0 0 0 0 0 0 0 0 0 0 0 0 0 0 0 0 0 0 0 0 0 0 0 0 0 0 0 0 0 0
0 0 0 0 0 0 0 0 0 0 0 0 0 0 0 0 0 0 0 0 0 0 0 0 0 0 0 0 0 0 0 0 0 0 0 0 0 0 0 0 0 0 0
0 0 0 0 0 0 0 0 0 0 0 0 0 0 0 0 0 0 0 0 0 0 0 0 0 0 0 0 0 0 0 0 0 0 0 0 0 0 0 0 0 0 0
0 0 0 0 0 0 0 0 0 0 0 0 0 0 0 0 0 0 0 0 0 0 0 0 0 0 0 0 0 0 0 0 0 0 0 0 0 0 0 0 0 0 0
0 0 0 0 0 0 0 0 0 0 0 0 0 0 0 0 0 0 0 0 0 0 0 0 0 0 0 0 0 0 0 0 0 0 0 0 0 0 0 0 0 0 0
0 0 0 0 0 0 0 0 0 0 0 0 0 0 0 0 0 0 0 0 0 0 0 0 0 0 0 0 0 0 0 0 0 0 0 0 0 0 0 0 0 0 0
0 0 0 0 0 0 0 0 0 0 0 0 0 0 0 0 0 0 0 0 0 0 0 0 0 0 0 0 0 0 0 0 0 0 0 0 0 0 0 0 0 0 0
0 0 0 0 0 0 0 0 0 0 0 0 0 0 0 0 0 0 0 0 0 0 0 0 0 0 0 0 0 0 0 0 0 0 0 0 0 0 0 0 0 0 0
0 0 0 0 0 0 0 0 0 0 0 0 0 0 0 0 0 0 0 0 0 0 0 0 0 0 0 0 0 0 0 0 0 0 0 0 0 0 0 0 0 0 0
0 0 0 0 0 0 0 0 0 0 0 0 0 0 0 0 0 0 0 0 0 0 0 0 0 0 0 0 0 0 0 0 0 0 0 0 0 0 0 0 0 0 0
0 0 0 0 0 0 0 0 0 0 0 0 0 0 0 0 0 0 0 0 0 0 0 0 0 0 0 0 0 0 0 0 0 0 0 0 0 0 0 0 0 0 0
0 0 0 0 0 0 0 0 0 0 0 0 0 0 0 0 0 0 0 0 0 0 0 0 0 0 0 0 0 0 0 0 0 0 0 0 0 0 0 0 0 0 0
0 0 0 0 0 0 0 0 0 0 0 0 0 0 0 0 0 0 0 0 0 0 0 0 0 0 0 0 0 0 0 0 0 0 0 0 0 0 0 0 0 0 0
0 0 0 0 0 0 0 0 0 0 0 0 0 0 0 0 0 0 0 0 0 0 0 0 0 0 0 0 0 0 0 0 0 0 0 0 0 0 0 0 0 0 0
0 0 0 0 0 0 0 0 0 0 0 0 0 0 0 0 0 0 0 0 0 0 0 0 0 0 0 0 0 0 0 0 0 0 0 0 0 0 0 0 0 0 0
0 0 0 0 0 0 0 0 0 0 0 0 0 0 0 0 0 0 0 0 0 0 0 0 0 0 0 0 0 0 0 0 0 0 0 0 0 0 0 0 0 0 0
0 0 0 0 0 1 1 1 1 0 0 0 0 0 0 0 0 0 0 0 0 0 0 0 0 0 0 0 0 0 0 0 0 0 0 0 0 0 0 0 0 0 0
0 0 0 0 0 1 1 1 1 1 0 0 0 0 0 0 0 0 0 0 0 0 0 0 0 0 0 0 0 0 0 0 0 0 0 0 0 0 0 0 0 0 0
Wind_Speed
4 5 9 5 5 5 5 6 5 6 6 6 7 8 8 8 8 9 10 11 11 11 10 10 9 9 9 9 10 10 9 9 9 9 9 8 8 7 7 7 7 6 8
5 6 8 5 5 5 5 6 6 6 6 7 7 8 9 8 8 9 10 10 11 10 10 10 9 9 9 9 9 9 9 9 9 8 8 8 8 6 6 5 3 5 8
5 6 7 5 5 5 5 5 5 6 7 7 8 8 9 8 8 9 10 10 10 10 9 9 9 8 8 9 8 8 8 8 8 7 7 6 7 7 6 5 5 6 7
6 6 7 6 5 5 5 6 5 6 7 7 8 8 8 9 9 9 9 9 9 9 9 8 8 8 8 8 8 7 7 7 7 7 5 4 5 7 6 5 5 6 6
6 6 8 5 5 5 5 5 5 5 6 7 8 8 8 8 8 8 8 8 8 8 8 8 7 7 7 7 7 7 6 6 6 7 3 3 4 7 6 6 5 5 5
6 6 9 6 5 5 5 5 5 5 6 7 7 7 7 7 7 7 8 8 7 7 7 7 6 6 7 6 7 7 6 6 7 4 3 2 4 7 6 5 5 5 5
6 6 8 7 6 6 5 5 5 5 6 7 7 7 7 7 7 7 7 7 7 7 7 6 6 6 6 6 6 6 6 5 4 3 3 2 4 6 5 5 5 5 5
6 6 7 8 6 6 5 5 5 5 6 6 7 7 6 6 6 6 6 6 7 7 6 6 5 5 5 5 5 5 4 4 3 3 3 3 6 5 4 4 4 4 4
6 6 6 6 6 6 6 5 5 5 6 6 6 6 6 6 5 6 6 6 6 6 6 6 6 5 5 5 5 4 4 3 3 2 3 3 6 5 5 4 4 4 4
6 5 5 6 5 5 6 6 5 6 6 5 5 5 5 6 6 6 6 6 6 6 6 6 5 5 5 5 5 5 4 5 3 3 2 4 6 5 4 4 4 4 4
5 4 4 5 4 4 5 6 5 6 6 4 5 5 3 3 4 5 6 6 5 5 5 5 5 5 5 6 6 5 5 3 3 2 2 6 6 4 4 4 5 5 4
5 4 3 3 3 4 3 4 2 3 4 2 2 2 1 2 2 3 7 5 4 4 5 5 5 6 6 4 6 6 3 3 2 2 3 6 4 3 3 4 4 5 5
4 4 4 3 2 2 2 2 2 2 3 3 3 2 2 1 2 2 2 4 4 5 3 5 5 2 2 1 1 2 2 2 1 1 4 6 4 3 3 4 4 4 5
4 4 3 3 3 2 2 2 1 2 2 2 3 1 2 1 1 2 1 1 1 1 1 1 1 2 1 2 2 1 1 1 1 1 3 5 3 3 3 4 4 4 4
4 4 4 2 2 2 2 0 2 1 2 3 2 2 1 2 2 2 1 1 1 1 2 1 1 2 2 2 1 1 1 2 2 1 3 6 4 3 4 4 5 4 4
5 5 4 3 3 2 2 1 1 1 2 2 2 3 1 2 2 1 2 1 1 1 1 1 1 1 1 1 1 1 0 1 1 1 1 4 6 4 4 4 5 5 5
5 4 4 3 3 3 2 1 1 1 2 2 2 2 1 1 2 1 1 1 1 1 2 1 1 1 2 2 2 1 1 1 1 0 0 1 3 6 5 4 4 4 5
5 5 4 3 4 3 2 1 0 1 1 2 2 2 2 1 1 1 1 2 1 1 1 2 1 2 1 1 1 1 1 1 1 1 1 1 1 1 5 5 4 4 5
6 5 4 3 3 3 3 2 1 1 1 1 1 2 2 2 1 1 1 1 1 1 1 1 2 1 1 1 1 1 1 1 1 1 1 1 1 1 0 5 6 4 4
6 6 5 5 4 3 3 2 2 2 2 1 1 1 1 2 2 1 2 2 1 1 1 2 2 1 0 1 0 1 0 1 0 1 0 1 0 0 0 1 3 4 4
7 7 6 5 5 4 3 3 2 2 2 2 2 2 2 1 2 1 0 2 1 1 1 1 1 2 1 1 1 1 1 1 1 0 0 1 1 0 0 0 0 0 3
9 8 7 7 6 5 3 2 1 1 2 2 1 2 2 2 2 2 1 1 1 1 2 1 1 0 1 1 1 1 1 2 1 1 1 0 1 1 0 0 0 1 1
10 9 7 7 6 6 5 4 3 3 2 2 3 3 2 3 3 2 2 1 1 1 2 2 1 1 0 1 1 2 1 1 0 1 0 0 0 1 1 0 1 1 1
10 9 8 8 7 6 6 5 5 3 3 2 2 2 2 3 3 3 3 2 2 1 1 2 2 1 2 1 1 0 2 2 2 0 1 1 1 1 1 2 1 1 1
10 9 9 8 7 7 6 6 5 4 3 3 2 2 3 3 3 3 3 3 2 2 1 1 1 2 2 1 1 0 1 1 2 2 1 1 1 1 1 1 1 1 1
9 9 9 9 8 8 7 7 6 5 4 3 3 3 3 3 3 3 3 3 3 2 2 2 3 3 2 2 2 2 1 1 2 2 2 2 1 1 1 1 2 1 1
Wind_Direction
85 90 104 110 114 117 117 115 115 117 124 130 134 135 137 136 137 141 142 144 145 146 146 145 144 143 140 142 142 143 144 150 148 143 142 143 144 143 145 153 169 150 128
88 94 104 107 111 113 115 113 111 116 124 128 133 135 135 135 138 142 141 142 144 144 143 142 140 138 139 140 142 142 142 146 146 147 152 152 151 154 155 162 174 120 138
101 104 116 108 114 114 114 114 113 115 121 120 123 129 131 132 135 140 141 140 141 142 140 139 137 136 137 139 138 140 141 141 145 155 183 175 151 158 160 159 148 137 144
105 107 104 109 118 114 113 112 112 114 121 120 119 123 128 128 132 135 137 138 141 143 144 141 138 139 140 142 142 142 143 144 149 179 195 167 153 145 159 158 155 152 150
106 106 104 114 115 113 111 111 110 112 120 121 122 125 129 130 130 133 135 139 141 144 144 142 143 144 142 145 145 145 148 153 172 203 180 171 143 137 156 160 159 158 156
108 106 107 117 110 109 107 106 106 112 123 126 127 128 128 129 131 132 135 138 140 142 143 142 145 145 144 147 150 153 155 173 201 179 168 172 140 138 154 158 156 154 154
101 100 110 110 105 103 98 97 103 112 123 128 131 129 128 130 133 134 137 139 139 139 140 142 147 149 150 151 153 157 163 191 206 148 156 149 110 129 149 159 161 162 166
99 98 106 118 113 103 96 92 99 115 123 125 127 128 131 131 133 136 136 138 138 140 142 148 154 159 157 154 154 157 168 218 179 158 156 134 113 132 152 161 172 180 182
100 99 105 115 119 121 105 95 97 112 120 122 126 128 128 130 131 134 133 133 136 142 148 154 160 164 161 157 154 155 170 225 228 160 158 129 126 150 167 177 184 188 194
97 100 104 103 102 113 114 112 103 112 110 112 118 123 134 147 148 144 145 132 137 145 155 162 166 162 156 154 152 161 186 220 199 163 156 123 139 164 176 188 195 201 201
108 105 102 104 110 102 100 104 121 127 122 141 137 135 171 162 141 147 116 122 137 148 163 164 160 157 160 160 164 179 201 204 162 144 124 112 140 164 181 194 201 204 205
126 120 104 95 103 103 95 109 123 123 118 123 104 126 146 115 118 122 125 143 152 160 170 164 171 177 199 171 166 187 194 170 165 142 116 122 141 168 189 197 204 209 211
132 122 112 107 87 84 97 98 96 102 114 125 112 117 119 124 123 129 134 154 162 176 174 156 181 180 167 138 161 165 177 175 150 142 120 134 153 186 211 216 218 218 215
142 133 118 118 115 88 69 87 112 102 114 110 115 138 115 104 110 110 132 117 147 133 126 141 123 132 151 160 164 159 175 176 161 153 124 138 163 201 225 225 222 221 217
148 144 133 135 123 116 106 73 89 95 95 101 107 110 114 127 135 125 112 109 125 113 138 139 129 130 156 166 166 146 177 167 178 179 138 148 176 215 236 233 226 223 216
157 151 149 156 135 124 131 118 93 100 110 101 102 101 117 121 118 129 139 134 94 91 85 120 141 154 160 122 124 120 183 168 156 191 177 159 176 207 229 237 236 223 222
159 152 156 160 147 143 139 151 133 114 114 108 107 116 123 117 118 138 123 131 102 104 119 130 131 146 147 140 126 118 110 115 119 157 239 250 182 185 199 216 223 226 225
168 159 164 168 153 148 141 163 132 103 111 111 120 126 126 108 117 138 104 93 106 120 127 138 145 126 116 115 102 98 113 130 145 181 170 192 265 220 174 183 205 218 222
173 169 170 176 170 163 161 169 173 142 136 126 133 124 125 136 132 142 90 89 144 121 120 123 102 117 122 114 130 151 155 126 146 128 125 137 171 271 189 153 174 194 218
176 177 178 180 179 182 179 173 181 168 165 155 141 117 142 152 143 161 133 116 134 114 104 88 98 95 127 214 217 95 130 113 99 93 204 128 114 249 51 104 164 170 175
180 180 184 187 177 191 192 201 186 177 181 165 158 143 171 183 159 195 120 135 166 115 98 115 126 131 132 153 172 158 146 144 96 109 54 23 66 358 26 80 17 268 167
183 186 188 189 184 191 181 200 199 206 200 172 162 152 190 195 204 184 189 193 157 146 136 139 153 313 98 98 298 256 181 156 167 90 118 124 352 328 305 131 120 237 274
187 190 191 190 188 192 187 191 184 189 208 185 184 181 192 200 206 218 200 224 202 211 153 185 188 202 167 146 329 318 327 42 347 148 175 215 307 321 303 263 202 218 238
190 187 188 187 188 188 191 199 200 200 203 194 200 177 191 198 208 204 213 214 232 233 166 205 161 225 231 208 157 319 341 351 301 283 205 174 195 275 308 296 259 203 239
189 188 185 185 188 189 195 195 205 210 206 200 196 183 215 192 209 208 208 215 224 232 221 264 201 242 247 274 292 262 232 222 258 287 309 301 258 265 283 270 278 267 206
187 189 186 184 189 191 195 199 206 209 210 207 208 198 208 192 200 203 212 213 220 229 217 230 230 220 250 276 285 286 273 270 273 281 281 274 304 333 291 288 260 244 217